Location: ??
(35.5052°N, 139.7262°E)
Time: 18:29:02
(UTC+00:00)

SPOT 5 - Pass Details

Date: 20 June 2021
Orbit: 622 x 815 km, 98.2° (Epoch: 30 July)

Event Time Altitude Azimuth Distance (km) Brightness Sun altitude
Exits shadow 12:32:06 59° 176° (S) 885 3.0 -23.4°
Maximum altitude 12:33:06 85° 257° (WSW) 771 2.9 -23.5°
Drops below altitude 10° 12:38:04 10° 346° (NNW) 2,243 6.4 -24.1°
Sets 12:40:18 0° 347° (NNW) 3,139 7.4 -24.3°
